User: anonymous   Login
Location: Morehead State University
(38.1872°N, 83.4339°W)
Time: 16:33:04
(UTC-04:00)
Language:

Okean 2 - Orbit

View from above orbital plane
View from above orbital plane
View from above satellite
View from above satellite

Ground track
Ground track

The orbit data is extracted from the following two-line orbital elements,

1 20510U 90018A   16183.39002912  .00000438  00000-0  34207-4 0  9996
2 20510  82.5162 148.2065 0014110  87.1557  25.7535 14.98579682428909
Epoch (UTC): 01 July 2016 09:21:38
Eccentricity: 0.0014110
inclination: 82.5162°
perigee height: 561 km
apogee height: 581 km
right ascension of ascending node: 148.2065°
argument of perigee: 87.1557°
revolutions per day: 14.98579682
mean anomaly at epoch: 25.7535°
orbit number at epoch: 42890

The dashed part of the orbit path shows where the satellite is in the earth's shadow,  

DLR